Lemoore NAS, CA

8:58 PM PST on February 24, 2018 (GMT -0800)
Lemoore Naval Air Station

Weather History for KNLC - December, 2012

Change the Weather History Date:

Saturday, December 29, 2012

  Actual Average Record
Temperature  
Mean Temperature 44 °F -  
Max Temperature 52 °F 52 °F 66 °F (2013)
Min Temperature 36 °F 36 °F 21 °F (2006)
Degree Days  
Heating Degree Days 21    
Moisture  
Dew Point 40 °F    
Average Humidity 89    
Maximum Humidity 100    
Minimum Humidity 61    
Precipitation  
Precipitation 0.01 in - - ()
Sea Level Pressure  
Sea Level Pressure 30.04 in    
Wind  
Wind Speed 6 mph (ESE)    
Max Wind Speed 12 mph    
Max Gust Speed -    
Visibility 5 miles    
Events Fog , Rain    
Averages and records for this station are not official NWS values.
T = Trace of Precipitation, MM = Missing Value Source: NWS Daily Summary

Daily Weather History Graph

Daily Weather History Graph

Search for Another Location

Airport or City:

Trip Planner

Search our weather history database for the weather conditions in past years. The results will help you decide how hot, cold, wet, or windy it might be!

Date:

Astronomy

Dec. 29, 2012 Rise Set
Actual Time 7:10 AM PST 4:53 PM PST
Civil Twilight 6:42 AM PST 5:22 PM PST
Nautical Twilight 6:09 AM PST 5:54 PM PST
Astronomical Twilight 5:38 AM PST 6:25 PM PST
Moon 6:28 PM PST (12/29) 7:50 AM PST (12/29)
Length of Visible Light 10h 40m
Length of Day
9h 42m
Full, 98% of the Moon is Illuminated
Dec 29
Full
Jan 4
Last Quarter
Jan 11
New
Jan 18
First Quarter
Jan 26
Full

Hourly Weather History & Observations

Time (PST) Temp. Windchill Dew Point Humidity Pressure Visibility Wind Dir Wind Speed Gust Speed Precip Events Conditions
12:36 AM 42.8 °F 40.1 °F 41.0 °F 93% 30.06 in 2.5 mi SSE 4.6 mph - N/A   Mostly Cloudy
12:56 AM 42.1 °F 39.2 °F 41.0 °F 96% 30.05 in 2.5 mi SE 4.6 mph - N/A   Overcast
1:35 AM 39.2 °F 33.6 °F 39.2 °F 100% 30.04 in 1.8 mi SE 8.1 mph - N/A   Mostly Cloudy
1:56 AM 39.9 °F 36.7 °F 39.9 °F 100% 30.05 in 1.2 mi SE 4.6 mph - N/A   Overcast
2:21 AM 41.0 °F 38.0 °F 39.2 °F 93% 30.04 in 0.8 mi East 4.6 mph - N/A   Mostly Cloudy
2:33 AM 41.0 °F 37.1 °F 39.2 °F 93% 30.04 in 0.2 mi East 5.8 mph - N/A Fog Fog
2:53 AM 41.0 °F 35.8 °F 39.2 °F 93% 30.04 in 0.2 mi East 8.1 mph - N/A Fog Fog
2:56 AM 41.0 °F 35.8 °F 39.9 °F 96% 30.04 in 0.2 mi East 8.1 mph - N/A Fog Fog
3:06 AM 39.2 °F 35.0 °F 39.2 °F 100% 30.03 in 1.0 mi East 5.8 mph - N/A   Mist
3:21 AM 39.2 °F 33.6 °F 39.2 °F 100% 30.03 in 0.8 mi East 8.1 mph - N/A   Scattered Clouds
3:37 AM 39.2 °F 33.6 °F 39.2 °F 100% 30.02 in 1.2 mi East 8.1 mph - N/A   Scattered Clouds
3:46 AM 41.0 °F 35.8 °F 39.2 °F 93% 30.02 in 1.8 mi East 8.1 mph - N/A   Mostly Cloudy
3:56 AM 41.0 °F 35.2 °F 39.9 °F 96% 30.02 in 2.0 mi East 9.2 mph - N/A   Mostly Cloudy
4:56 AM 41.0 °F 36.4 °F 39.9 °F 96% 30.02 in 2.0 mi SW 6.9 mph - N/A   Overcast
5:41 AM 42.8 °F 38.6 °F 39.2 °F 87% 30.02 in 3.0 mi SSE 6.9 mph - N/A   Overcast
5:56 AM 42.1 °F 37.1 °F 39.9 °F 92% 30.03 in 4.0 mi SSE 8.1 mph - N/A   Overcast
6:56 AM 43.0 °F 37.7 °F 39.9 °F 89% 30.03 in 5.0 mi SSE 9.2 mph - N/A   Overcast
7:56 AM 44.1 °F 39.5 °F 39.9 °F 85% 30.04 in 8.0 mi South 8.1 mph - 0.01 in Rain Light Rain
8:56 AM 45.0 °F 42.6 °F 41.0 °F 86% 30.06 in 10.0 mi SE 4.6 mph - 0.00 in   Overcast
9:03 AM 44.6 °F 43.1 °F 41.0 °F 87% 30.06 in 10.0 mi ESE 3.5 mph - N/A   Overcast
9:56 AM 46.9 °F - 41.0 °F 80% 30.08 in 10.0 mi SE 6.9 mph - N/A   Overcast
10:56 AM 48.9 °F - 42.1 °F 77% 30.06 in 10.0 mi SE 9.2 mph - N/A   Overcast
11:56 AM 48.9 °F - 41.0 °F 74% 30.03 in 10.0 mi SSE 4.6 mph - N/A   Overcast
12:56 PM 50.0 °F - 41.0 °F 71% 30.01 in 9.0 mi East 4.6 mph - N/A   Mostly Cloudy
1:56 PM 51.1 °F - 39.9 °F 66% 29.99 in 10.0 mi ESE 4.6 mph - N/A   Mostly Cloudy
2:56 PM 52.0 °F - 39.0 °F 61% 30.00 in 10.0 mi NE 4.6 mph - N/A   Mostly Cloudy
3:56 PM 51.1 °F - 42.1 °F 71% 30.01 in 9.0 mi NE 5.8 mph - N/A   Mostly Cloudy
4:56 PM 45.0 °F 41.8 °F 39.9 °F 82% 30.02 in 8.0 mi NNW 5.8 mph - N/A   Mostly Cloudy
5:56 PM 46.0 °F 40.6 °F 43.0 °F 89% 30.04 in 7.0 mi NW 11.5 mph - N/A   Mostly Cloudy
6:56 PM 45.0 °F 39.7 °F 43.0 °F 93% 30.05 in 6.0 mi NW 10.4 mph - N/A   Overcast
7:56 PM 42.1 °F 36.1 °F 39.9 °F 92% 30.06 in 4.0 mi NW 10.4 mph - N/A   Clear
8:56 PM 39.0 °F 33.4 °F 37.9 °F 96% 30.07 in 5.0 mi NW 8.1 mph - N/A   Clear
10:56 PM 36.0 °F 30.3 °F 35.1 °F 97% 30.09 in 4.0 mi NW 6.9 mph - N/A   Clear
11:56 PM 36.0 °F 29.6 °F 35.1 °F 97% 30.09 in 4.0 mi WNW 8.1 mph - N/A   Clear